DECAYED

H-3 R/B, 61734 (Decayed)

Orbit data source: Space-Track

H-3 R/B, 61734 was space debris in HEO originally from a launch on Mon, 04 Nov 2024 UTC launched from the Tanegashima Space Center (TNSTA). Debris objects in space refer to the collection of defunct objects orbiting the Earth. Examples of debris include non-operational satellites, rocket bodies, and fragments generated from explosions, collisions, or faulty payload assembly.

Not visible in the next 10 days
Identifier
61734, 2024-198B
Orbit
Decayed
Country
Flag of JPJP / JPN
Related business
Manufacturer
MHI Tobishima
Mission
Decayed spacecraft
Bus & Motor
H-2A STAGE 2, Unknown motor
Mass
2,500 kg wet, 2,500 kg dry
Launch date (UTC)
2024-11-04 (1 year ago)
Launch vehicle
Unknown
Launch site
Tanegashima Space Center (TNSTA)
Object type
Payload
Rocket body
Debris
Shape & HBR
Cyl, 5.5 m
Radar Cross Section
55.543 m², Large (>1 m²)

Expand to show TLE details & history
Last TLE update: 9 months ago

TLE from 9 months ago
0 H-3 R/B
1 61734U 24198B   25070.08720895  .09976362 -90319-5  19817-2 0  9996
2 61734  24.3177 130.9128 6072748 276.1801  22.0624  4.10114731  3067
Epoch: 2025-03-11T02:05Z
TLE epoch observation values (Epoch: 2025-03-11T02:05:34.853Z)
Latitude
0.00001°
Longitude
-69.42943°
Altitude
3,406.636 km
Speed
7.569 km/s
True Right ascension
08h 43m 50s
True Declination
0° 00' 00"
Sunlit
Object was in partial shadow at epoch
Visualization orbit readout
Latitude
Unknown
Longitude
Unknown
Altitude
Unknown
Speed
Unknown
Apparent Right ascension
Unknown
Apparent Declination
Unknown
Sunlit
N/A
Visualization observer readout
Local Sidereal Time
01:21:01
Azimuth
Unknown
Elevation
Unknown
Doppler factor
Unknown
Orbital elements
Apogee altitude
20,126.791 km
Perigee altitude
98.138 km
Semi-major axis
16,490.601 km
Eccentricity
0.60727
Inclination
24.3177°
RAAN
130.9128°
Arg. of periapsis
276.1801°
True anomaly
83.83761°
Mean anomaly
22.0624°
Eccentric anomaly
47.86443°
Mean motion
1.02492 °/min
Orbital period
351.25 mins
BSTAR
0.0019817
Loading maneuver chart data...
Computing Atmospheric mass density...
Loading historical data...
Loading historical data...
Loading historical data...
Loading historical data...
Loading historical data...
Loading historical data...
Loading historical data...
Other satellites on launch #198 in the year 2024 (2024-11-04 UTC)

Documentation

Showing up to 5 results
|